QPF
0.01 0.01 0.01 0.00 0.01 0.01 0.01 0.03 0.04 0.03 0.02 0.02 0.01 0.01 0.02 0.03 0.03 0.01 0.00 0.01 0.01 0.02 0.04 0.04 0.03 0.04 0.05 0.04 0.03 0.02 0.02 0.02 0.02 0.02 0.03 0.04 0.04 0.04 0.03 0.03 0.03 0.04 0.03
0.01 0.01 0.01 0.01 0.01 0.01 0.01 0.02 0.03 0.04 0.03 0.03 0.02 0.02 0.02 0.03 0.03 0.02 0.01 0.01 0.01 0.02 0.03 0.04 0.04 0.04 0.06 0.06 0.05 0.04 0.03 0.02 0.02 0.02 0.02 0.03 0.05 0.04 0.03 0.03 0.05 0.05 0.04
0.01 0.01 0.01 0.02 0.03 0.02 0.02 0.02 0.03 0.04 0.04 0.05 0.04 0.03 0.02 0.03 0.03 0.03 0.01 0.01 0.01 0.02 0.03 0.04 0.05 0.05 0.06 0.07 0.07 0.06 0.04 0.02 0.02 0.02 0.03 0.04 0.05 0.04 0.03 0.04 0.05 0.07 0.09
0.02 0.02 0.02 0.02 0.03 0.03 0.02 0.03 0.04 0.05 0.05 0.05 0.05 0.04 0.03 0.03 0.02 0.02 0.02 0.02 0.02 0.03 0.04 0.05 0.04 0.05 0.05 0.06 0.07 0.07 0.06 0.05 0.03 0.02 0.03 0.03 0.04 0.03 0.03 0.03 0.04 0.04 0.07
0.03 0.03 0.05 0.04 0.04 0.04 0.04 0.04 0.04 0.06 0.07 0.06 0.05 0.05 0.05 0.04 0.03 0.02 0.02 0.02 0.02 0.03 0.04 0.06 0.05 0.04 0.04 0.05 0.07 0.08 0.07 0.06 0.06 0.04 0.03 0.02 0.03 0.04 0.04 0.03 0.02 0.03 0.03
0.03 0.03 0.05 0.07 0.07 0.08 0.07 0.05 0.04 0.06 0.07 0.08 0.07 0.06 0.06 0.06 0.04 0.03 0.02 0.02 0.02 0.03 0.04 0.06 0.07 0.05 0.04 0.04 0.05 0.07 0.08 0.08 0.07 0.05 0.05 0.04 0.04 0.04 0.04 0.03 0.03 0.03 0.03
0.01 0.01 0.02 0.05 0.07 0.07 0.04 0.04 0.05 0.07 0.08 0.09 0.10 0.09 0.08 0.08 0.07 0.05 0.03 0.02 0.02 0.03 0.04 0.06 0.08 0.07 0.04 0.04 0.05 0.06 0.07 0.09 0.09 0.08 0.07 0.06 0.05 0.06 0.05 0.03 0.03 0.04 0.04
0.01 0.01 0.01 0.02 0.03 0.03 0.02 0.03 0.05 0.08 0.09 0.11 0.11 0.10 0.08 0.08 0.08 0.07 0.05 0.04 0.03 0.03 0.04 0.05 0.07 0.07 0.05 0.04 0.05 0.06 0.07 0.09 0.11 0.11 0.08 0.06 0.05 0.05 0.06 0.04 0.03 0.03 0.04
0.01 0.01 0.01 0.01 0.01 0.01 0.01 0.02 0.04 0.08 0.11 0.11 0.11 0.09 0.07 0.06 0.07 0.07 0.06 0.04 0.04 0.04 0.05 0.06 0.06 0.08 0.07 0.05 0.05 0.06 0.07 0.07 0.08 0.09 0.09 0.08 0.06 0.04 0.04 0.05 0.04 0.04 0.03
0.01 0.00 0.01 0.01 0.00 0.01 0.01 0.02 0.05 0.06 0.09 0.10 0.10 0.08 0.05 0.04 0.04 0.06 0.05 0.05 0.05 0.06 0.07 0.08 0.08 0.08 0.09 0.09 0.08 0.07 0.06 0.05 0.06 0.07 0.10 0.10 0.08 0.06 0.04 0.04 0.04 0.03 0.03
0.02 0.02 0.02 0.01 0.01 0.01 0.01 0.01 0.03 0.05 0.06 0.07 0.08 0.08 0.06 0.04 0.03 0.04 0.05 0.05 0.05 0.05 0.06 0.08 0.09 0.09 0.10 0.10 0.10 0.09 0.08 0.06 0.05 0.05 0.07 0.09 0.10 0.08 0.05 0.04 0.04 0.04 0.03
0.03 0.03 0.02 0.02 0.01 0.01 0.00 0.00 0.00 0.01 0.04 0.06 0.06 0.07 0.06 0.05 0.04 0.04 0.05 0.06 0.06 0.06 0.07 0.07 0.08 0.08 0.08 0.09 0.10 0.09 0.08 0.07 0.06 0.05 0.04 0.05 0.08 0.08 0.07 0.05 0.04 0.03 0.03
0.05 0.04 0.02 0.01 0.01 0.01 0.01 0.00 0.00 0.00 0.01 0.03 0.04 0.04 0.05 0.04 0.04 0.04 0.04 0.04 0.05 0.06 0.07 0.07 0.06 0.06 0.05 0.05 0.06 0.07 0.07 0.07 0.07 0.06 0.06 0.05 0.05 0.07 0.09 0.06 0.04 0.04 0.03
0.03 0.03 0.02 0.01 0.01 0.00 0.00 0.00 0.00 0.00 0.01 0.01 0.02 0.03 0.03 0.03 0.02 0.02 0.03 0.03 0.04 0.05 0.06 0.06 0.05 0.05 0.04 0.03 0.04 0.04 0.04 0.05 0.06 0.06 0.05 0.04 0.03 0.04 0.06 0.08 0.06 0.04 0.04
0.01 0.01 0.01 0.01 0.00 0.00 0.00 0.00 0.00 0.00 0.00 0.01 0.01 0.02 0.02 0.02 0.03 0.02 0.02 0.03 0.03 0.04 0.05 0.05 0.05 0.04 0.03 0.02 0.02 0.02 0.02 0.03 0.04 0.05 0.05 0.04 0.03 0.03 0.03 0.04 0.05 0.05 0.05
0.01 0.01 0.01 0.01 0.00 0.00 0.00 0.00 0.00 0.00 0.00 0.01 0.01 0.01 0.02 0.02 0.02 0.03 0.02 0.02 0.03 0.04 0.04 0.05 0.05 0.04 0.03 0.02 0.02 0.01 0.02 0.03 0.03 0.04 0.04 0.04 0.04 0.04 0.03 0.03 0.03 0.04 0.04
0.01 0.01 0.01 0.01 0.00 0.00 0.00 0.00 0.00 0.00 0.00 0.00 0.01 0.01 0.01 0.02 0.02 0.02 0.02 0.03 0.03 0.03 0.04 0.04 0.04 0.04 0.04 0.03 0.02 0.02 0.02 0.02 0.02 0.02 0.03 0.03 0.03 0.03 0.03 0.03 0.03 0.02 0.02
0.00 0.00 0.00 0.01 0.00 0.00 0.00 0.00 0.00 0.01 0.01 0.01 0.01 0.01 0.01 0.02 0.01 0.01 0.02 0.03 0.03 0.03 0.04 0.04 0.05 0.05 0.05 0.04 0.03 0.03 0.02 0.02 0.02 0.02 0.02 0.03 0.04 0.03 0.03 0.04 0.03 0.03 0.02
0.00 0.00 0.00 0.00 0.00 0.00 0.00 0.00 0.00 0.01 0.01 0.01 0.01 0.01 0.01 0.01 0.02 0.01 0.01 0.02 0.02 0.03 0.04 0.05 0.05 0.05 0.06 0.04 0.03 0.03 0.02 0.01 0.01 0.02 0.02 0.03 0.03 0.03 0.04 0.04 0.04 0.03 0.02
0.00 0.00 0.00 0.00 0.00 0.00 0.00 0.00 0.00 0.00 0.01 0.01 0.01 0.01 0.01 0.01 0.01 0.01 0.01 0.02 0.02 0.03 0.04 0.05 0.05 0.06 0.06 0.05 0.03 0.02 0.02 0.02 0.01 0.01 0.01 0.01 0.02 0.02 0.03 0.03 0.02 0.02 0.02
0.00 0.00 0.00 0.00 0.00 0.00 0.00 0.00 0.00 0.01 0.01 0.01 0.01 0.01 0.01 0.01 0.01 0.01 0.01 0.02 0.02 0.03 0.04 0.05 0.05 0.05 0.05 0.06 0.04 0.02 0.01 0.01 0.01 0.01 0.01 0.01 0.00 0.01 0.01 0.02 0.02 0.02 0.02
0.00 0.00 0.00 0.00 0.00 0.00 0.00 0.00 0.01 0.01 0.01 0.01 0.01 0.01 0.01 0.01 0.01 0.01 0.01 0.01 0.02 0.03 0.04 0.05 0.05 0.05 0.04 0.04 0.03 0.02 0.01 0.01 0.01 0.00 0.00 0.01 0.00 0.01 0.01 0.01 0.02 0.02 0.02
0.01 0.00 0.00 0.00 0.00 0.00 0.00 0.00 0.00 0.01 0.01 0.00 0.00 0.00 0.00 0.00 0.00 0.01 0.01 0.01 0.01 0.01 0.02 0.03 0.04 0.04 0.03 0.03 0.03 0.04 0.03 0.02 0.01 0.00 0.01 0.01 0.00 0.01 0.00 0.00 0.01 0.01 0.02
0.01 0.00 0.00 0.00 0.00 0.00 0.00 0.00 0.00 0.00 0.00 0.00 0.00 0.00 0.00 0.00 0.00 0.01 0.01 0.01 0.01 0.01 0.01 0.02 0.03 0.03 0.03 0.03 0.04 0.05 0.04 0.03 0.02 0.01 0.01 0.02 0.01 0.00 0.00 0.00 0.01 0.01 0.02
0.01 0.00 0.00 0.00 0.00 0.00 0.00 0.00 0.00 0.00 0.00 0.00 0.00 0.00 0.00 0.00 0.00 0.01 0.01 0.01 0.01 0.01 0.01 0.01 0.02 0.02 0.03 0.03 0.04 0.05 0.05 0.05 0.04 0.02 0.02 0.01 0.01 0.01 0.00 0.00 0.00 0.01 0.01
0.00 0.00 0.00 0.00 0.00 0.00 0.00 0.00 0.00 0.01 0.01 0.00 0.00 0.00 0.00 0.00 0.01 0.01 0.02 0.02 0.02 0.01 0.01 0.01 0.01 0.01 0.02 0.02 0.03 0.04 0.04 0.04 0.04 0.04 0.02 0.02 0.02 0.02 0.02 0.01 0.00 0.01 0.01
MSLP
1022.09 1022.37 1022.64 1022.89 1023.12 1023.33 1023.53 1023.70 1023.86 1024.00 1024.13 1024.25 1024.37 1024.50 1024.65 1024.82 1025.01 1025.20 1025.39 1025.56 1025.70 1025.81 1025.87 1025.92 1025.95 1026.01 1026.09 1026.21 1026.37 1026.54 1026.71 1026.85 1026.95 1027.00 1027.00 1026.96 1026.91 1026.86 1026.85 1026.86 1026.90 1026.94 1026.98
1022.24 1022.53 1022.80 1023.07 1023.33 1023.57 1023.81 1024.02 1024.23 1024.42 1024.60 1024.77 1024.94 1025.12 1025.31 1025.51 1025.71 1025.91 1026.09 1026.23 1026.33 1026.39 1026.42 1026.42 1026.43 1026.46 1026.54 1026.67 1026.84 1027.03 1027.23 1027.40 1027.52 1027.58 1027.58 1027.54 1027.49 1027.43 1027.40 1027.40 1027.42 1027.47 1027.51
1022.35 1022.64 1022.92 1023.20 1023.48 1023.76 1024.04 1024.31 1024.58 1024.84 1025.09 1025.33 1025.57 1025.80 1026.03 1026.26 1026.48 1026.68 1026.85 1026.97 1027.05 1027.08 1027.07 1027.05 1027.03 1027.04 1027.09 1027.21 1027.37 1027.55 1027.75 1027.92 1028.04 1028.11 1028.12 1028.08 1028.02 1027.95 1027.90 1027.89 1027.90 1027.94 1027.98
1022.45 1022.75 1023.03 1023.32 1023.62 1023.93 1024.25 1024.59 1024.92 1025.25 1025.57 1025.88 1026.17 1026.46 1026.73 1026.99 1027.22 1027.43 1027.60 1027.73 1027.80 1027.82 1027.81 1027.77 1027.74 1027.73 1027.76 1027.84 1027.97 1028.12 1028.29 1028.44 1028.54 1028.60 1028.61 1028.57 1028.50 1028.43 1028.37 1028.34 1028.34 1028.36 1028.39
1022.54 1022.85 1023.15 1023.45 1023.76 1024.09 1024.45 1024.83 1025.21 1025.59 1025.97 1026.33 1026.67 1026.99 1027.29 1027.57 1027.82 1028.05 1028.24 1028.39 1028.49 1028.54 1028.55 1028.53 1028.50 1028.49 1028.49 1028.54 1028.61 1028.72 1028.84 1028.94 1029.02 1029.05 1029.05 1029.00 1028.93 1028.86 1028.79 1028.75 1028.73 1028.73 1028.74
1022.57 1022.93 1023.25 1023.57 1023.90 1024.25 1024.62 1025.01 1025.42 1025.83 1026.23 1026.61 1026.97 1027.30 1027.62 1027.90 1028.17 1028.42 1028.64 1028.84 1028.99 1029.10 1029.18 1029.21 1029.22 1029.22 1029.22 1029.23 1029.26 1029.31 1029.36 1029.41 1029.45 1029.45 1029.43 1029.38 1029.31 1029.23 1029.16 1029.10 1029.06 1029.04 1029.03
1022.51 1022.93 1023.31 1023.65 1023.99 1024.35 1024.71 1025.10 1025.50 1025.91 1026.30 1026.68 1027.02 1027.35 1027.65 1027.93 1028.21 1028.47 1028.73 1028.99 1029.22 1029.42 1029.58 1029.70 1029.78 1029.82 1029.84 1029.84 1029.83 1029.83 1029.83 1029.82 1029.81 1029.78 1029.74 1029.68 1029.61 1029.54 1029.46 1029.40 1029.34 1029.30 1029.26
1022.31 1022.82 1023.25 1023.64 1024.01 1024.36 1024.72 1025.08 1025.46 1025.83 1026.19 1026.53 1026.84 1027.12 1027.39 1027.66 1027.92 1028.20 1028.50 1028.82 1029.13 1029.43 1029.70 1029.93 1030.10 1030.21 1030.26 1030.28 1030.26 1030.23 1030.18 1030.14 1030.09 1030.04 1029.98 1029.92 1029.85 1029.78 1029.70 1029.63 1029.56 1029.50 1029.43
1021.93 1022.53 1023.05 1023.49 1023.89 1024.25 1024.60 1024.94 1025.27 1025.61 1025.92 1026.21 1026.47 1026.71 1026.94 1027.16 1027.41 1027.69 1028.01 1028.37 1028.75 1029.15 1029.52 1029.86 1030.13 1030.33 1030.45 1030.51 1030.51 1030.47 1030.41 1030.34 1030.27 1030.21 1030.15 1030.08 1030.02 1029.95 1029.88 1029.80 1029.72 1029.64 1029.56
1021.37 1022.07 1022.67 1023.18 1023.62 1024.00 1024.35 1024.68 1024.99 1025.29 1025.56 1025.81 1026.03 1026.22 1026.40 1026.59 1026.80 1027.06 1027.38 1027.76 1028.18 1028.64 1029.10 1029.53 1029.90 1030.19 1030.39 1030.51 1030.56 1030.55 1030.50 1030.44 1030.37 1030.31 1030.25 1030.19 1030.13 1030.07 1030.00 1029.91 1029.82 1029.73 1029.62
1020.66 1021.45 1022.13 1022.71 1023.20 1023.63 1024.00 1024.33 1024.65 1024.93 1025.19 1025.42 1025.61 1025.78 1025.92 1026.07 1026.24 1026.46 1026.75 1027.12 1027.55 1028.04 1028.54 1029.03 1029.48 1029.85 1030.13 1030.33 1030.44 1030.48 1030.48 1030.45 1030.40 1030.35 1030.30 1030.26 1030.20 1030.14 1030.06 1029.97 1029.87 1029.76 1029.64
1019.86 1020.71 1021.46 1022.12 1022.67 1023.15 1023.56 1023.93 1024.27 1024.57 1024.85 1025.09 1025.29 1025.45 1025.58 1025.70 1025.83 1026.01 1026.26 1026.58 1026.98 1027.45 1027.96 1028.47 1028.96 1029.40 1029.75 1030.02 1030.21 1030.32 1030.37 1030.39 1030.38 1030.35 1030.32 1030.28 1030.23 1030.16 1030.08 1029.98 1029.86 1029.73 1029.60
1019.03 1019.93 1020.73 1021.45 1022.06 1022.60 1023.07 1023.49 1023.88 1024.23 1024.56 1024.84 1025.07 1025.26 1025.40 1025.51 1025.62 1025.75 1025.94 1026.20 1026.54 1026.96 1027.43 1027.94 1028.44 1028.91 1029.32 1029.65 1029.91 1030.09 1030.20 1030.27 1030.30 1030.31 1030.30 1030.26 1030.21 1030.14 1030.04 1029.92 1029.78 1029.64 1029.49
1018.26 1019.16 1020.00 1020.76 1021.43 1022.01 1022.54 1023.02 1023.47 1023.89 1024.28 1024.63 1024.92 1025.16 1025.33 1025.46 1025.56 1025.66 1025.80 1025.99 1026.26 1026.61 1027.03 1027.50 1027.98 1028.46 1028.90 1029.27 1029.58 1029.82 1029.99 1030.11 1030.18 1030.21 1030.21 1030.18 1030.12 1030.03 1029.92 1029.78 1029.63 1029.46 1029.30
1017.58 1018.48 1019.32 1020.10 1020.80 1021.42 1021.99 1022.52 1023.02 1023.51 1023.97 1024.39 1024.76 1025.06 1025.29 1025.45 1025.57 1025.66 1025.76 1025.91 1026.11 1026.40 1026.75 1027.17 1027.61 1028.07 1028.51 1028.91 1029.25 1029.53 1029.74 1029.89 1029.98 1030.03 1030.03 1030.00 1029.93 1029.83 1029.70 1029.55 1029.38 1029.20 1029.02
1017.02 1017.90 1018.73 1019.50 1020.20 1020.84 1021.43 1021.99 1022.53 1023.06 1023.58 1024.06 1024.50 1024.87 1025.17 1025.39 1025.54 1025.65 1025.74 1025.86 1026.03 1026.26 1026.56 1026.92 1027.33 1027.76 1028.18 1028.58 1028.93 1029.21 1029.44 1029.60 1029.70 1029.74 1029.74 1029.70 1029.62 1029.50 1029.36 1029.21 1029.03 1028.85 1028.67
1016.58 1017.42 1018.23 1018.98 1019.66 1020.29 1020.87 1021.43 1021.98 1022.53 1023.08 1023.61 1024.10 1024.53 1024.89 1025.17 1025.38 1025.53 1025.66 1025.78 1025.94 1026.14 1026.41 1026.73 1027.10 1027.49 1027.89 1028.26 1028.59 1028.86 1029.07 1029.22 1029.31 1029.34 1029.32 1029.26 1029.17 1029.04 1028.90 1028.75 1028.59 1028.42 1028.25
1016.24 1017.05 1017.82 1018.53 1019.18 1019.77 1020.33 1020.86 1021.40 1021.94 1022.49 1023.04 1023.56 1024.03 1024.45 1024.79 1025.06 1025.27 1025.45 1025.61 1025.79 1026.01 1026.26 1026.56 1026.90 1027.26 1027.61 1027.94 1028.24 1028.47 1028.65 1028.77 1028.82 1028.82 1028.78 1028.70 1028.60 1028.48 1028.34 1028.20 1028.06 1027.92 1027.77
1015.97 1016.74 1017.47 1018.14 1018.75 1019.30 1019.81 1020.31 1020.81 1021.33 1021.86 1022.40 1022.93 1023.43 1023.88 1024.28 1024.61 1024.89 1025.13 1025.36 1025.58 1025.82 1026.09 1026.39 1026.71 1027.03 1027.34 1027.63 1027.87 1028.06 1028.19 1028.26 1028.28 1028.25 1028.18 1028.08 1027.97 1027.85 1027.73 1027.61 1027.49 1027.38 1027.27
1015.73 1016.47 1017.16 1017.79 1018.36 1018.87 1019.35 1019.81 1020.27 1020.76 1021.26 1021.78 1022.30 1022.81 1023.28 1023.72 1024.10 1024.45 1024.75 1025.04 1025.32 1025.61 1025.90 1026.21 1026.51 1026.81 1027.09 1027.33 1027.52 1027.66 1027.74 1027.76 1027.74 1027.67 1027.58 1027.47 1027.34 1027.22 1027.11 1027.01 1026.92 1026.84 1026.76
1015.53 1016.23 1016.89 1017.48 1018.01 1018.49 1018.94 1019.38 1019.82 1020.28 1020.76 1021.26 1021.76 1022.26 1022.75 1023.21 1023.63 1024.02 1024.38 1024.73 1025.06 1025.39 1025.71 1026.03 1026.33 1026.61 1026.85 1027.06 1027.20 1027.30 1027.34 1027.32 1027.27 1027.18 1027.06 1026.93 1026.80 1026.67 1026.56 1026.47 1026.39 1026.33 1026.26
1015.36 1016.02 1016.63 1017.20 1017.71 1018.18 1018.62 1019.05 1019.49 1019.94 1020.41 1020.90 1021.39 1021.88 1022.36 1022.82 1023.26 1023.68 1024.08 1024.47 1024.84 1025.20 1025.55 1025.88 1026.18 1026.45 1026.67 1026.84 1026.96 1027.03 1027.04 1027.01 1026.93 1026.82 1026.69 1026.54 1026.40 1026.26 1026.13 1026.02 1025.93 1025.85 1025.78
1015.25 1015.85 1016.42 1016.96 1017.45 1017.92 1018.38 1018.83 1019.29 1019.76 1020.23 1020.72 1021.20 1021.68 1022.15 1022.61 1023.05 1023.48 1023.90 1024.30 1024.69 1025.08 1025.44 1025.78 1026.08 1026.34 1026.55 1026.71 1026.82 1026.87 1026.88 1026.84 1026.76 1026.64 1026.50 1026.35 1026.18 1026.01 1025.85 1025.69 1025.56 1025.44 1025.32
1015.21 1015.75 1016.27 1016.78 1017.26 1017.75 1018.23 1018.72 1019.21 1019.71 1020.22 1020.71 1021.20 1021.67 1022.13 1022.57 1023.00 1023.42 1023.83 1024.24 1024.64 1025.03 1025.39 1025.73 1026.04 1026.30 1026.51 1026.67 1026.78 1026.84 1026.86 1026.83 1026.76 1026.65 1026.50 1026.33 1026.13 1025.92 1025.70 1025.48 1025.27 1025.07 1024.88
1015.29 1015.76 1016.22 1016.69 1017.16 1017.66 1018.17 1018.70 1019.24 1019.79 1020.32 1020.84 1021.33 1021.80 1022.25 1022.67 1023.08 1023.49 1023.88 1024.28 1024.68 1025.06 1025.42 1025.76 1026.06 1026.32 1026.53 1026.70 1026.83 1026.91 1026.94 1026.94 1026.88 1026.78 1026.63 1026.44 1026.21 1025.94 1025.65 1025.34 1025.04 1024.74 1024.45
1015.51 1015.90 1016.29 1016.71 1017.17 1017.67 1018.21 1018.78 1019.36 1019.94 1020.51 1021.05 1021.55 1022.02 1022.45 1022.86 1023.25 1023.63 1024.02 1024.40 1024.78 1025.15 1025.51 1025.84 1026.14 1026.40 1026.61 1026.79 1026.93 1027.02 1027.08 1027.09 1027.06 1026.96 1026.81 1026.60 1026.32 1025.99 1025.63 1025.23 1024.82 1024.41 1024.01
Thickness
5572 5573 5574 5575 5576 5578 5579 5581 5583 5585 5587 5589 5591 5592 5594 5596 5598 5599 5600 5601 5603 5605 5607 5609 5611 5613 5614 5615 5616 5617 5618 5620 5621 5622 5622 5623 5624 5626 5627 5628 5629 5630 5631
5562 5563 5565 5566 5567 5568 5569 5571 5573 5575 5577 5579 5581 5583 5585 5587 5588 5589 5590 5592 5593 5595 5597 5599 5601 5603 5605 5607 5608 5609 5610 5611 5612 5613 5614 5615 5616 5617 5618 5619 5621 5622 5624
5551 5553 5555 5556 5556 5557 5559 5561 5563 5565 5567 5569 5572 5573 5575 5577 5579 5580 5581 5582 5584 5585 5587 5589 5591 5593 5595 5597 5599 5600 5601 5602 5603 5604 5605 5606 5607 5608 5610 5611 5612 5614 5616
5540 5542 5544 5545 5546 5547 5549 5551 5552 5555 5557 5559 5561 5563 5565 5567 5569 5570 5571 5572 5573 5575 5576 5578 5580 5582 5584 5587 5589 5590 5591 5592 5594 5595 5596 5597 5598 5599 5601 5602 5604 5605 5607
5530 5531 5532 5534 5535 5537 5539 5540 5542 5544 5546 5548 5550 5553 5554 5556 5558 5560 5561 5561 5562 5563 5565 5567 5569 5571 5573 5576 5578 5580 5581 5583 5584 5585 5586 5587 5589 5590 5591 5593 5594 5596 5598
5519 5521 5521 5523 5524 5526 5528 5529 5530 5532 5534 5536 5539 5542 5543 5545 5547 5548 5549 5550 5550 5551 5553 5555 5557 5560 5561 5564 5566 5569 5570 5572 5573 5575 5576 5577 5578 5580 5582 5583 5585 5587 5589
5509 5510 5511 5512 5513 5515 5516 5517 5519 5520 5522 5524 5529 5532 5533 5534 5535 5535 5537 5538 5538 5539 5540 5542 5545 5547 5550 5552 5554 5556 5558 5561 5562 5564 5565 5566 5568 5569 5571 5573 5575 5577 5578
5498 5499 5500 5501 5501 5503 5504 5505 5506 5508 5509 5510 5514 5520 5525 5527 5524 5523 5523 5524 5525 5526 5528 5529 5531 5533 5536 5538 5540 5543 5545 5548 5550 5552 5553 5555 5557 5559 5560 5562 5564 5566 5567
5487 5487 5488 5489 5489 5490 5491 5492 5493 5496 5498 5498 5498 5503 5511 5516 5511 5512 5511 5510 5511 5512 5513 5515 5517 5519 5521 5523 5526 5529 5531 5533 5536 5539 5541 5543 5545 5547 5549 5550 5552 5554 5556
5477 5476 5476 5477 5477 5478 5479 5479 5480 5482 5484 5485 5485 5485 5488 5492 5495 5499 5499 5498 5497 5498 5499 5500 5502 5505 5506 5509 5511 5514 5516 5519 5521 5524 5527 5530 5532 5534 5535 5537 5539 5541 5543
5466 5465 5464 5464 5464 5465 5466 5466 5467 5467 5468 5469 5470 5472 5473 5475 5478 5482 5486 5485 5484 5484 5484 5485 5487 5489 5491 5493 5496 5498 5500 5503 5506 5509 5512 5515 5518 5519 5521 5523 5526 5528 5529
5455 5453 5452 5452 5451 5452 5452 5453 5453 5453 5454 5455 5456 5457 5460 5462 5463 5465 5469 5469 5469 5470 5470 5470 5472 5473 5475 5477 5479 5482 5484 5487 5490 5493 5496 5499 5502 5504 5507 5508 5511 5513 5516
5445 5442 5441 5439 5439 5439 5439 5439 5439 5440 5440 5441 5442 5443 5444 5445 5446 5446 5449 5451 5453 5455 5456 5457 5457 5458 5459 5460 5462 5464 5468 5470 5473 5477 5479 5482 5485 5488 5490 5493 5496 5498 5501
5434 5431 5429 5428 5427 5426 5426 5426 5427 5427 5427 5428 5428 5429 5429 5430 5430 5430 5431 5432 5437 5441 5444 5444 5443 5443 5443 5444 5445 5447 5451 5453 5456 5459 5462 5465 5468 5471 5474 5477 5480 5482 5485
5422 5419 5418 5416 5415 5414 5414 5414 5415 5415 5415 5415 5415 5415 5415 5414 5414 5414 5414 5415 5417 5423 5429 5429 5428 5427 5427 5428 5429 5431 5434 5436 5440 5442 5445 5448 5451 5454 5457 5460 5463 5466 5469
5410 5408 5406 5405 5403 5402 5402 5402 5402 5402 5402 5401 5401 5401 5400 5400 5399 5399 5399 5399 5399 5401 5407 5412 5410 5409 5411 5412 5413 5415 5417 5420 5423 5426 5429 5432 5435 5438 5440 5444 5448 5450 5453
5398 5396 5394 5392 5391 5390 5390 5389 5388 5388 5388 5387 5387 5386 5385 5384 5385 5384 5384 5384 5384 5385 5389 5394 5393 5394 5394 5396 5398 5400 5402 5405 5408 5410 5412 5415 5418 5421 5424 5427 5431 5434 5437
5387 5384 5382 5381 5379 5378 5377 5376 5375 5374 5374 5373 5372 5371 5370 5370 5369 5369 5369 5369 5369 5370 5372 5376 5378 5379 5379 5381 5383 5385 5387 5390 5392 5394 5396 5398 5402 5404 5407 5410 5413 5416 5419
5375 5373 5371 5369 5367 5366 5364 5363 5362 5361 5360 5359 5358 5357 5356 5355 5355 5354 5354 5355 5355 5355 5357 5359 5363 5364 5365 5366 5369 5371 5373 5375 5377 5379 5381 5384 5386 5388 5391 5394 5396 5399 5403
5364 5362 5359 5357 5355 5354 5352 5350 5349 5348 5347 5345 5344 5343 5342 5341 5341 5340 5340 5340 5341 5342 5343 5345 5348 5350 5352 5352 5353 5357 5359 5360 5362 5364 5366 5369 5371 5373 5376 5379 5382 5384 5386
5352 5350 5348 5345 5343 5342 5340 5338 5337 5336 5334 5333 5332 5331 5329 5328 5327 5326 5327 5327 5327 5328 5330 5332 5335 5338 5339 5339 5339 5341 5344 5346 5348 5348 5351 5354 5356 5360 5361 5364 5365 5368 5371
5341 5338 5336 5334 5332 5330 5327 5325 5324 5323 5322 5321 5320 5319 5318 5316 5315 5314 5313 5313 5313 5313 5315 5317 5320 5323 5324 5324 5324 5326 5328 5331 5336 5336 5335 5340 5340 5344 5347 5349 5351 5353 5356
5329 5327 5325 5322 5320 5318 5315 5313 5311 5310 5310 5309 5308 5307 5306 5304 5303 5302 5302 5301 5300 5300 5300 5302 5305 5307 5309 5310 5310 5312 5313 5315 5319 5319 5318 5325 5326 5330 5332 5335 5337 5339 5342
5318 5315 5312 5310 5307 5305 5302 5301 5299 5298 5298 5297 5296 5295 5294 5293 5291 5290 5290 5290 5290 5290 5289 5290 5292 5293 5293 5293 5294 5295 5297 5299 5302 5303 5303 5309 5313 5316 5319 5322 5324 5326 5329
5306 5303 5300 5297 5295 5293 5290 5289 5287 5287 5287 5287 5285 5283 5282 5281 5279 5278 5278 5279 5279 5278 5277 5277 5278 5278 5279 5280 5280 5281 5283 5284 5289 5292 5290 5292 5298 5301 5306 5310 5312 5314 5317
5293 5290 5287 5285 5283 5281 5279 5277 5276 5276 5276 5276 5275 5273 5271 5269 5268 5266 5266 5266 5267 5267 5266 5267 5266 5267 5267 5268 5267 5267 5269 5270 5273 5277 5278 5277 5281 5283 5291 5297 5299 5301 5304